This is the latest recevied weather packets stored in our database for station/object AC4AG. If no packets are shown the sender has not sent any weather packets the latest 10 day(s).
| Time | Temp. | Humidity | Pressure | Rain* | Wind** | Luminosity | Snow |
|---|---|---|---|---|---|---|---|
| 1777244138 | 23.89° C | 53% | 1013.2 hPa | 0 mm | - | 133 W/m² | - |
| 1777243837 | 23.89° C | 53% | 1013.1 hPa | 0 mm | - | 161 W/m² | - |
| 1777243533 | 23.89° C | 54% | 1013.1 hPa | 0 mm | - | 175 W/m² | - |
| 1777243229 | 23.33° C | 53% | 1013.1 hPa | 0 mm | - | 195 W/m² | - |
| 1777242924 | 23.33° C | 54% | 1013.2 hPa | 0 mm | - | 212 W/m² | - |
| 1777242622 | 23.89° C | 52% | 1013 hPa | 0 mm | - | 228 W/m² | - |
| 1777242318 | 24.44° C | 53% | 1012.9 hPa | 0 mm | - | 247 W/m² | - |
| 1777242015 | 23.89° C | 51% | 1013 hPa | 0 mm | - | 258 W/m² | - |
| 1777241713 | 23.33° C | 53% | 1013 hPa | 0 mm | - | 278 W/m² | - |
| 1777241409 | 23.33° C | 53% | 1013 hPa | 0 mm | - | 295 W/m² | - |
| 1777241107 | 22.78° C | 53% | 1013.1 hPa | 0 mm | - | 312 W/m² | - |
| 1777240805 | 22.78° C | 54% | 1012.9 hPa | 0 mm | - | 332 W/m² | - |
| 1777240503 | 23.33° C | 53% | 1013 hPa | 0 mm | - | 348 W/m² | - |
| 1777240199 | 23.89° C | 53% | 1012.9 hPa | 0 mm | - | 370 W/m² | - |
| 1777239897 | 23.89° C | 52% | 1012.7 hPa | 0 mm | - | 380 W/m² | - |
| 1777239594 | 24.44° C | 52% | 1012.9 hPa | 0 mm | - | 398 W/m² | - |
| 1777239290 | 23.89° C | 53% | 1012.6 hPa | 0 mm | - | 417 W/m² | - |
| 1777238988 | 23.89° C | 53% | 1012.8 hPa | 0 mm | - | 435 W/m² | - |
| 1777238685 | 23.89° C | 54% | 1012.8 hPa | 0 mm | - | 456 W/m² | - |
| 1777238381 | 23.89° C | 50% | 1012.9 hPa | 0 mm | - | 480 W/m² | - |
| 1777238078 | 23.89° C | 52% | 1013 hPa | 0 mm | - | 492 W/m² | - |
| 1777237775 | 23.89° C | 51% | 1013 hPa | 0 mm | - | 511 W/m² | - |
| 1777237472 | 23.33° C | 52% | 1012.8 hPa | 0 mm | - | 527 W/m² | - |
| 1777237169 | 23.33° C | 51% | 1012.9 hPa | 0 mm | - | 552 W/m² | - |
| 1777236866 | 23.89° C | 51% | 1012.9 hPa | 0 mm | - | 561 W/m² | - |
* Rain latest hour (hover to see other rain measurements)
** Current wind speed in m/s (hover to see current wind gust speed)